Content
SEND FEEDBACK

Daily
Averages
Monthly
Summary
United States of America

TAMUNING, GUAM


Home > North America > United States > Guam
Elevation: 76 meters     Latitude: 13 29N     Longitude: 144 47E

WEATHER
 
SELECT A DAY
Number of Records: 341,964;   Date Range: 1/1/95 - 7/26/14
 
SHARE

PRINT THIS DATA

[ ← Previous Day ]
WEATHER ALMANAC - 31 DECEMBER, 2012
[ Next Day → ]
[ °F ]   °C
Weather ElementAverageHighLow
Temperature27.1 °C29.7 °C (11:55 am)25.5 °C (3:55 am)
Dewpoint24.1 °C25 °C (11:15 am)22 °C (12:22 am)
Humidity83.8 %94 % (7:44 pm)73 % (11:55 am)
Barometer1009.1 hPa1010.8 hPa (8:55 am)1007.8 hPa (2:35 am)
Wind Speed25.7 km/h31.5 km/h (10:55 am)
Wind Gust38.9 km/h (12:22 am)
Weather ElementAverage
Visibility16.1 km
Wind DirectionENE (65.5 °)

Weather ElementTotal
Precipitation---
Cooling Degree Days9.3 (Base 18.3)
Growing Degree Days17.6 (Base 10)
Averaged from 143 records on 31 December, 2012
WEATHER CONDITIONS BREAKOUT
WIND DIRECTION BREAKOUT
WEATHER BY HOUR - 31 DECEMBER, 2012
[ °F ]   °C
Local TimeTemperatureDewpointHumidityBarometerVisibilityWind DirectionWind SpeedGust SpeedPrecipitationEventsConditions
12:22 AM26 °C22 °C78 %1008.8 hPa16.1 kmENE (70°)27.8 km/h38.9 km/hMostly Cloudy
12:34 AM26 °C22 °C78 %1008.8 hPa16.1 kmENE (70°)27.8 km/hMostly Cloudy
12:55 AM26.3 °C22.7 °C80 %1008.5 hPa16.1 kmENE (70°)25.9 km/hMostly Cloudy
1:09 AM26 °C23 °C83 %1008.5 hPa16.1 kmENE (70°)27.8 km/h38.9 km/hMostly Cloudy
1:55 AM26.1 °C22.8 °C82 %1008.1 hPa16.1 kmENE (70°)25.9 km/hMostly Cloudy
2:35 AM26 °C23 °C83 %1007.8 hPa16.1 kmENE (70°)24.1 km/hMostly Cloudy
2:55 AM26.1 °C23.4 °C85 %1007.8 hPa16.1 kmENE (70°)22.2 km/hMostly Cloudy
3:13 AM26 °C23 °C83 %1007.8 hPa16.1 kmENE (70°)25.9 km/h35.2 km/hScattered Clouds
3:16 AM26 °C23 °C83 %1007.8 hPa16.1 kmENE (70°)25.9 km/hMostly Cloudy
3:38 AM26 °C23 °C83 %1007.8 hPa16.1 kmENE (70°)25.9 km/hMostly Cloudy
3:55 AM25.5 °C23.3 °C88 %1007.8 hPa16.1 kmENE (70°)20.4 km/hMostly Cloudy
4:38 AM26 °C23 °C83 %1008.1 hPa16.1 kmEast (80°)27.8 km/h37 km/hMostly Cloudy
4:55 AM26 °C23.9 °C88 %1008.1 hPa16.1 kmENE (70°)22.2 km/hMostly Cloudy
4:57 AM26 °C24 °C89 %1008.1 hPa16.1 kmENE (70°)22.2 km/hMostly Cloudy
5:01 AM26 °C24 °C89 %1008.5 hPa16.1 kmENE (70°)24.1 km/hMostly Cloudy
5:12 AM26 °C23 °C83 %1008.5 hPa16.1 kmENE (70°)27.8 km/hMostly Cloudy
5:13 AM26 °C24 °C89 %1008.5 hPa16.1 kmENE (70°)27.8 km/hScattered Clouds
5:17 AM26 °C24 °C89 %1008.5 hPa16.1 kmENE (70°)25.9 km/hMostly Cloudy
5:19 AM26 °C24 °C89 %1008.5 hPa16.1 kmENE (70°)24.1 km/hScattered Clouds
5:26 AM26 °C24 °C89 %1008.5 hPa16.1 kmENE (70°)22.2 km/hMostly Cloudy
5:30 AM26 °C24 °C89 %1008.5 hPa16.1 kmEast (80°)25.9 km/h37 km/hScattered Clouds
5:55 AM26.2 °C23.2 °C83 %1008.5 hPa16.1 kmEast (80°)25.9 km/hScattered Clouds
6:05 AM26 °C24 °C89 %1008.8 hPa16.1 kmENE (70°)24.1 km/hMostly Cloudy
6:11 AM26 °C24 °C89 %1008.8 hPa16.1 kmENE (70°)20.4 km/hMostly Cloudy
6:16 AM26 °C24 °C89 %1008.8 hPa16.1 kmENE (60°)22.2 km/hMostly Cloudy
6:19 AM26 °C24 °C89 %1008.8 hPa16.1 kmENE (60°)22.2 km/hMostly Cloudy
6:22 AM26 °C24 °C89 %1008.8 hPa16.1 kmENE (60°)25.9 km/hMostly Cloudy
6:23 AM26 °C24 °C89 %1008.8 hPa16.1 kmENE (60°)24.1 km/hMostly Cloudy
6:30 AM26 °C24 °C89 %1009.1 hPa16.1 kmENE (70°)22.2 km/hMostly Cloudy
6:32 AM26 °C24 °C89 %1009.1 hPa16.1 kmENE (70°)25.9 km/hMostly Cloudy
6:38 AM26 °C24 °C89 %1009.1 hPa16.1 kmENE (70°)25.9 km/hMostly Cloudy
6:45 AM26 °C23 °C83 %1009.1 hPa16.1 kmENE (70°)25.9 km/hScattered Clouds
6:55 AM26 °C22.5 °C81 %1009.1 hPa16.1 kmEast (80°)29.6 km/hPartly Cloudy
7:22 AM27 °C23 °C79 %1009.8 hPa16.1 kmENE (70°)25.9 km/hMostly Cloudy
7:23 AM27 °C23 °C79 %1009.8 hPa16.1 kmENE (60°)25.9 km/hScattered Clouds
7:24 AM27 °C24 °C84 %1009.8 hPa16.1 kmENE (60°)25.9 km/hMostly Cloudy
7:51 AM27 °C24 °C84 %1010.2 hPa16.1 kmENE (70°)27.8 km/h38.9 km/hScattered Clouds
7:55 AM27.1 °C23.5 °C81 %1010.2 hPa16.1 kmENE (70°)27.8 km/h38.9 km/hScattered Clouds
8:16 AM27 °C24 °C84 %1010.2 hPa16.1 kmENE (70°)29.6 km/hMostly Cloudy
8:42 AM28 °C23 °C74 %1010.5 hPa16.1 kmENE (70°)29.6 km/hScattered Clouds
8:55 AM27.7 °C23.5 °C78 %1010.8 hPa16.1 kmEast (80°)29.6 km/hScattered Clouds
9:07 AM28 °C24 °C79 %1010.8 hPa16.1 kmENE (70°)29.6 km/hMostly Cloudy
9:46 AM28 °C24 °C79 %1010.8 hPa16.1 kmENE (70°)29.6 km/hScattered Clouds
9:55 AM28.2 °C23.8 °C77 %1010.8 hPa16.1 kmENE (70°)29.6 km/hScattered Clouds
9:56 AM28 °C24 °C79 %1010.8 hPa16.1 kmENE (70°)27.8 km/hMostly Cloudy
10:06 AM28 °C24 °C79 %1010.8 hPa16.1 kmEast (80°)27.8 km/h37 km/hScattered Clouds
10:13 AM29 °C24 °C74 %1010.5 hPa16.1 kmEast (80°)25.9 km/h38.9 km/hMostly Cloudy
10:25 AM28 °C24 °C79 %1010.5 hPa16.1 kmEast (80°)25.9 km/hScattered Clouds
10:37 AM29 °C24 °C74 %1010.2 hPa16.1 kmENE (70°)25.9 km/hMostly Cloudy
10:45 AM28 °C24 °C79 %1010.2 hPa16.1 kmENE (70°)27.8 km/hScattered Clouds
10:46 AM28 °C24 °C79 %1010.2 hPa16.1 kmENE (70°)29.6 km/hMostly Cloudy
10:48 AM28 °C24 °C79 %1010.2 hPa16.1 kmENE (70°)25.9 km/hScattered Clouds
10:53 AM29 °C24 °C74 %1010.2 hPa16.1 kmENE (70°)29.6 km/hMostly Cloudy
10:55 AM28.5 °C24.1 °C77 %1010.2 hPa16.1 kmENE (70°)31.5 km/hMostly Cloudy
11:15 AM28 °C25 °C84 %1010.2 hPa16.1 kmENE (60°)25.9 km/hMostly Cloudy
11:16 AM28 °C25 °C84 %1010.2 hPa16.1 kmENE (70°)25.9 km/hMostly Cloudy
11:22 AM28 °C25 °C84 %1009.8 hPa16.1 kmENE (70°)27.8 km/hScattered Clouds
11:29 AM29 °C25 °C79 %1009.8 hPa16.1 kmEast (80°)29.6 km/h38.9 km/hMostly Cloudy
11:31 AM29 °C25 °C79 %1009.8 hPa16.1 kmENE (70°)27.8 km/h38.9 km/hMostly Cloudy
11:34 AM29 °C25 °C79 %1009.8 hPa16.1 kmENE (70°)27.8 km/h38.9 km/hMostly Cloudy
11:36 AM29 °C25 °C79 %1009.8 hPa16.1 kmENE (70°)27.8 km/h38.9 km/hMostly Cloudy
11:55 AM29.7 °C24.3 °C73 %1009.5 hPa16.1 kmENE (70°)27.8 km/hScattered Clouds
12:00 PM29 °C24 °C74 %1009.5 hPa16.1 kmENE (70°)24.1 km/hMostly Cloudy
12:05 PM29 °C25 °C79 %1009.5 hPa16.1 kmENE (70°)29.6 km/hScattered Clouds
12:41 PM29 °C24 °C74 %1008.8 hPa16.1 kmENE (70°)27.8 km/hMostly Cloudy
12:55 PM28.7 °C24.1 °C76 %1008.8 hPa16.1 kmENE (70°)27.8 km/hMostly Cloudy
1:43 PM29 °C24 °C74 %1008.1 hPa16.1 kmENE (70°)27.8 km/hScattered Clouds
1:55 PM28.8 °C24.8 °C79 %1008.1 hPa16.1 kmENE (70°)24.1 km/hScattered Clouds
1:57 PM29 °C25 °C79 %1008.1 hPa16.1 kmENE (60°)20.4 km/hMostly Cloudy
2:05 PM29 °C25 °C79 %1008.1 hPa16.1 kmEast (80°)25.9 km/hMostly Cloudy
2:31 PM29 °C24 °C74 %1007.8 hPa16.1 kmENE (70°)27.8 km/hMostly Cloudy
2:38 PM29 °C24 °C74 %1007.8 hPa16.1 kmENE (70°)27.8 km/hMostly Cloudy
2:50 PM29 °C25 °C79 %1007.8 hPa16.1 kmENE (70°)25.9 km/hMostly Cloudy
2:54 PM29 °C24 °C74 %1007.8 hPa16.1 kmENE (70°)27.8 km/hMostly Cloudy
2:55 PM28.5 °C24.5 °C79 %1007.8 hPa16.1 kmENE (70°)27.8 km/hMostly Cloudy
3:01 PM28 °C24 °C79 %1007.8 hPa16.1 kmENE (60°)24.1 km/hMostly Cloudy
3:17 PM29 °C25 °C79 %1007.8 hPa14.5 kmENE (70°)22.2 km/hRainLight Rain
3:26 PM28 °C25 °C84 %1007.8 hPa16.1 kmENE (70°)22.2 km/hMostly Cloudy
3:34 PM28 °C24 °C79 %1007.8 hPa16.1 kmENE (70°)25.9 km/hMostly Cloudy
3:36 PM28 °C24 °C79 %1007.8 hPa16.1 kmENE (70°)25.9 km/hMostly Cloudy
3:55 PM28.4 °C24.6 °C80 %1007.8 hPa16.1 kmNE (50°)27.8 km/h0 mmScattered Clouds
4:06 PM29 °C25 °C79 %1007.8 hPa16.1 kmENE (60°)22.2 km/hMostly Cloudy
4:19 PM28 °C25 °C84 %1007.8 hPa16.1 kmENE (60°)27.8 km/hLight Drizzle
4:20 PM28 °C25 °C84 %1007.8 hPa16.1 kmNE (50°)29.6 km/hLight Drizzle
4:22 PM28 °C25 °C84 %1007.8 hPa16.1 kmENE (60°)25.9 km/hLight Drizzle
4:29 PM27 °C24 °C84 %1008.1 hPa16.1 kmENE (60°)22.2 km/hMostly Cloudy
4:32 PM27 °C24 °C84 %1008.1 hPa16.1 kmENE (60°)20.4 km/hScattered Clouds
4:55 PM27.6 °C24.5 °C83 %1008.1 hPa16.1 kmENE (60°)24.1 km/h0 mmScattered Clouds
4:59 PM27 °C24 °C84 %1008.1 hPa16.1 kmENE (60°)22.2 km/hMostly Cloudy
5:14 PM27 °C24 °C84 %1008.5 hPa16.1 kmENE (60°)25.9 km/hMostly Cloudy
5:21 PM27 °C24 °C84 %1008.5 hPa16.1 kmENE (60°)24.1 km/hMostly Cloudy
5:34 PM27 °C24 °C84 %1008.5 hPa16.1 kmENE (60°)24.1 km/hMostly Cloudy
5:36 PM27 °C24 °C84 %1008.5 hPa16.1 kmNE (50°)24.1 km/hMostly Cloudy
5:55 PM27.1 °C24.3 °C85 %1008.5 hPa16.1 kmNE (50°)24.1 km/hMostly Cloudy
6:01 PM27 °C24 °C84 %1008.8 hPa16.1 kmENE (60°)24.1 km/hScattered Clouds
6:07 PM27 °C24 °C84 %1008.8 hPa16.1 kmENE (60°)24.1 km/hMostly Cloudy
6:12 PM27 °C24 °C84 %1008.8 hPa16.1 kmNE (50°)25.9 km/hMostly Cloudy
6:13 PM27 °C24 °C84 %1008.8 hPa16.1 kmNE (50°)25.9 km/hMostly Cloudy
6:15 PM27 °C24 °C84 %1008.8 hPa16.1 kmNE (50°)25.9 km/hMostly Cloudy
6:16 PM27 °C24 °C84 %1008.8 hPa16.1 kmNE (50°)24.1 km/hMostly Cloudy
6:19 PM27 °C25 °C89 %1008.8 hPa16.1 kmENE (60°)22.2 km/hMostly Cloudy
6:55 PM26.6 °C24.2 °C87 %1009.1 hPa16.1 kmENE (60°)25.9 km/hScattered Clouds
7:10 PM27 °C24 °C84 %1009.5 hPa16.1 kmNE (50°)25.9 km/hMostly Cloudy
7:24 PM27 °C24 °C84 %1009.5 hPa16.1 kmENE (60°)25.9 km/hMostly Cloudy
7:27 PM27 °C24 °C84 %1009.5 hPa16.1 kmENE (60°)24.1 km/hMostly Cloudy
7:28 PM27 °C24 °C84 %1009.5 hPa16.1 kmNE (50°)25.9 km/hMostly Cloudy
7:30 PM27 °C24 °C84 %1009.5 hPa16.1 kmENE (60°)25.9 km/hLight Drizzle
7:31 PM27 °C24 °C84 %1009.5 hPa14.5 kmENE (60°)25.9 km/hLight Drizzle
7:32 PM27 °C24 °C84 %1009.5 hPa14.5 kmENE (60°)25.9 km/hLight Drizzle
7:33 PM27 °C24 °C84 %1009.5 hPa14.5 kmENE (60°)25.9 km/hLight Drizzle
7:37 PM27 °C24 °C84 %1009.5 hPa14.5 kmENE (60°)24.1 km/hLight Drizzle
7:38 PM27 °C24 °C84 %1009.5 hPa14.5 kmENE (60°)24.1 km/hLight Drizzle
7:40 PM26 °C24 °C89 %1009.5 hPa16.1 kmENE (60°)24.1 km/hMostly Cloudy
7:41 PM26 °C24 °C89 %1009.5 hPa16.1 kmENE (60°)22.2 km/hScattered Clouds
7:44 PM26 °C25 °C94 %1009.5 hPa16.1 kmENE (60°)24.1 km/hMostly Cloudy
7:45 PM26 °C25 °C94 %1009.5 hPa16.1 kmENE (60°)22.2 km/hScattered Clouds
7:46 PM26 °C25 °C94 %1009.5 hPa16.1 kmENE (60°)24.1 km/hMostly Cloudy
7:49 PM27 °C25 °C89 %1009.5 hPa16.1 kmNE (50°)27.8 km/hMostly Cloudy
7:52 PM27 °C25 °C89 %1009.5 hPa16.1 kmENE (60°)24.1 km/hMostly Cloudy
7:53 PM27 °C24 °C84 %1009.8 hPa16.1 kmENE (60°)24.1 km/hMostly Cloudy
7:55 PM26.6 °C24.5 °C88 %1009.8 hPa16.1 kmENE (60°)25.9 km/h0 mmMostly Cloudy
8:19 PM26 °C25 °C94 %1010.2 hPa16.1 kmENE (60°)20.4 km/hMostly Cloudy
8:22 PM26 °C25 °C94 %1009.8 hPa16.1 kmENE (60°)22.2 km/hScattered Clouds
8:28 PM26 °C25 °C94 %1009.8 hPa16.1 kmENE (60°)18.5 km/hMostly Cloudy
8:35 PM27 °C25 °C89 %1009.8 hPa16.1 kmENE (60°)25.9 km/hMostly Cloudy
8:39 PM27 °C25 °C89 %1010.2 hPa16.1 kmENE (60°)31.5 km/hMostly Cloudy
8:40 PM27 °C25 °C89 %1010.2 hPa16.1 kmENE (60°)29.6 km/hRainLight Rain
8:49 PM26 °C24 °C89 %1009.8 hPa16.1 kmENE (60°)27.8 km/hScattered Clouds
8:55 PM26.3 °C24.6 °C90 %1010.2 hPa16.1 kmENE (60°)24.1 km/h0 mmScattered Clouds
9:55 PM26.3 °C24.4 °C89 %1010.2 hPa16.1 kmENE (60°)25.9 km/hScattered Clouds
9:57 PM26 °C24 °C89 %1010.2 hPa16.1 kmENE (60°)25.9 km/hMostly Cloudy
10:13 PM27 °C25 °C89 %1010.2 hPa16.1 kmNE (50°)25.9 km/h37 km/hMostly Cloudy
10:23 PM26 °C24 °C89 %1010.2 hPa16.1 kmENE (70°)24.1 km/hMostly Cloudy
10:25 PM26 °C24 °C89 %1010.2 hPa16.1 kmENE (70°)29.6 km/h37 km/hMostly Cloudy
10:28 PM26 °C24 °C89 %1010.2 hPa16.1 kmENE (70°)25.9 km/h37 km/hScattered Clouds
10:55 PM26.5 °C24.2 °C87 %1009.8 hPa16.1 kmENE (60°)27.8 km/hPartly Cloudy
11:16 PM26 °C24 °C89 %1009.8 hPa16.1 kmENE (60°)24.1 km/hMostly Cloudy
11:17 PM26 °C24 °C89 %1009.8 hPa16.1 kmENE (70°)20.4 km/hMostly Cloudy
11:32 PM26 °C24 °C89 %1009.5 hPa16.1 kmENE (70°)27.8 km/hMostly Cloudy
11:35 PM26 °C24 °C89 %1009.5 hPa16.1 kmENE (70°)25.9 km/hScattered Clouds
11:37 PM26 °C24 °C89 %1009.5 hPa16.1 kmENE (70°)24.1 km/hMostly Cloudy
11:38 PM26 °C24 °C89 %1009.5 hPa16.1 kmENE (70°)24.1 km/hMostly Cloudy
11:55 PM26.5 °C24.6 °C89 %1009.5 hPa16.1 kmENE (70°)27.8 km/hMostly Cloudy
Hourly data recorded from PGUA, located 0 kilometers away from Tamuning, Guam







STORIES FROM OUR PARTNERS